FW9191 Weather Reports


Display with metric or nautical units.
time (UTC)temp
F
wind
direction
speed
MPH
gust
MPH
rain 1hr
in
rain 24hr
in
rain mn
in
humidity
%
barometer
mb
20260505073055 41 162 0.0 0.0 0.00 0.00 0.00 10 1017.9
20260505072550 41 169 0.0 0.0 0.00 0.00 0.00 10 1018.1
20260505072047 41 160 1.0 1.0 0.00 0.00 0.00 10 1018.2
20260505071542 41 140 2.0 2.0 0.00 0.00 0.00 10 1017.9
20260505071040 41 146 2.0 2.0 0.00 0.00 0.00 10 1018.1
20260505070537 41 149 1.0 1.0 0.00 0.00 0.00 10 1017.9
20260505070033 41 141 2.0 2.0 0.00 0.00 0.00 10 1018.2
20260505065529 41 157 2.0 2.0 0.00 0.00 0.00 10 1018.2
20260505065026 41 148 2.0 2.0 0.00 0.00 0.00 10 1018.0
20260505064523 41 144 2.0 2.0 0.00 0.00 0.00 10 1018.1
20260505064021 41 112 2.0 3.0 0.00 0.00 0.00 10 1018.1
20260505063518 41 135 0.0 1.0 0.00 0.00 0.00 10 1018.0
20260505063014 42 145 1.0 3.0 0.00 0.00 0.00 10 1018.0
20260505062511 42 142 2.0 3.0 0.00 0.00 0.00 10 1018.1
20260505062008 42 25 3.0 5.0 0.00 0.00 0.00 10 1018.0
20260505061506 42 31 5.0 6.0 0.00 0.00 0.00 10 1018.2
20260505061003 43 23 5.0 7.0 0.00 0.00 0.00 10 1018.0
20260505060500 43 32 8.0 10.0 0.00 0.00 0.00 10 1018.0
20260505055956 43 85 3.0 5.0 0.00 0.00 0.00 10 1018.0
20260505055452 43 335 6.0 7.0 0.00 0.00 0.00 10 1017.9
20260505054949 44 40 4.0 5.0 0.00 0.00 0.00 10 1017.7
20260505054447 44 36 5.0 7.0 0.00 0.00 0.00 10 1017.8
20260505053945 44 45 6.0 7.0 0.00 0.00 0.00 10 1017.8
20260505053441 44 83 3.0 5.0 0.00 0.00 0.00 10 1017.5
20260505052938 44 73 3.0 5.0 0.00 0.00 0.00 10 1017.6
20260505052435 45 24 3.0 6.0 0.00 0.00 0.00 10 1017.7
20260505051932 45 169 1.0 2.0 0.00 0.00 0.00 10 1017.6
20260505051429 45 183 2.0 2.0 0.00 0.00 0.00 10 1017.6
20260505050927 45 196 3.0 3.0 0.00 0.00 0.00 10 1017.7
20260505050425 45 177 1.0 1.0 0.00 0.00 0.00 10 1017.6
20260505041353 45 105 1.0 2.0 0.00 0.00 0.00 10 1017.0
20260505040850 45 99 2.0 3.0 0.00 0.00 0.00 10 1017.1
20260505040348 46 67 4.0 5.0 0.00 0.00 0.00 10 1016.9
20260505035844 46 84 3.0 3.0 0.00 0.00 0.00 10 1017.0
20260505035340 46 26 3.0 5.0 0.00 0.00 0.00 10 1017.0
20260505034838 46 115 2.0 2.0 0.00 0.00 0.00 10 1017.0
20260505034334 46 50 6.0 7.0 0.00 0.00 0.00 10 1016.8
20260505033831 46 36 7.0 8.0 0.00 0.00 0.00 10 1017.0
20260505033328 47 65 3.0 5.0 0.00 0.00 0.00 10 1016.9
20260505032826 47 107 0.0 0.0 0.00 0.00 0.00 10 1016.8
20260505032322 47 165 2.0 2.0 0.00 0.00 0.00 10 1016.8
20260505031820 47 28 4.0 5.0 0.00 0.00 0.00 10 1016.6
20260505031316 47 84 3.0 5.0 0.00 0.00 0.00 10 1016.3
20260505030813 48 165 2.0 3.0 0.00 0.00 0.00 10 1016.3
20260505030310 48 29 3.0 3.0 0.00 0.00 0.00 10 1016.3
20260505025804 48 15 7.0 8.0 0.00 0.00 0.00 10 1016.3
20260505025304 48 42 6.0 8.0 0.00 0.00 0.00 10 1016.3
20260505024801 48 301 4.0 5.0 0.00 0.00 0.00 10 1016.2
20260505024258 48 54 3.0 5.0 0.00 0.00 0.00 10 1016.2
20260505023755 48 20 7.0 8.0 0.00 0.00 0.00 10 1016.1
20260505023252 49 144 5.0 7.0 0.00 0.00 0.00 10 1015.9
20260505022749 49 120 5.0 6.0 0.00 0.00 0.00 10 1016.1
20260505022246 49 26 10.0 11.0 0.00 0.00 0.00 10 1016.0
20260505021743 49 24 7.0 8.0 0.00 0.00 0.00 10 1015.9
20260505021240 49 37 5.0 6.0 0.00 0.00 0.00 10 1015.9
20260505020736 50 47 11.0 14.0 0.00 0.00 0.00 10 1015.8
20260505020231 50 51 5.0 6.0 0.00 0.00 0.00 10 1015.5
20260505015729 50 3 5.0 8.0 0.00 0.00 0.00 10 1015.9
20260505015225 51 346 8.0 10.0 0.00 0.00 0.00 10 1015.4
20260505014723 51 339 5.0 7.0 0.00 0.00 0.00 10 1015.3
20260505014220 51 344 9.0 11.0 0.00 0.00 0.00 10 1015.3
20260505013716 52 34 8.0 10.0 0.00 0.00 0.00 10 1015.3
20260505013214 51 323 11.0 14.0 0.00 0.00 0.00 10 1015.3
20260505012712 52 354 12.0 15.0 0.00 0.00 0.00 10 1015.2
20260505012209 52 329 8.0 11.0 0.00 0.00 0.00 10 1015.1
20260505011704 52 5 9.0 11.0 0.00 0.00 0.00 10 1015.2
20260505011202 52 295 9.0 10.0 0.00 0.00 0.00 10 1015.1
20260505010657 52 1 11.0 13.0 0.00 0.00 0.00 10 1015.1
20260505010154 52 345 9.0 10.0 0.00 0.00 0.00 10 1015.0
20260505005650 52 343 7.0 9.0 0.00 0.00 0.00 10 1015.3
20260505005147 52 322 12.0 16.0 0.00 0.00 0.00 10 1015.2
20260505004644 52 335 10.0 10.0 0.00 0.00 0.00 10 1015.3
20260505004141 52 226 6.0 7.0 0.00 0.00 0.00 10 1015.3
20260505003638 52 5 10.0 10.0 0.00 0.00 0.00 10 1015.4
20260505003136 52 11 12.0 14.0 0.00 0.00 0.00 10 1015.2
20260505002631 52 345 13.0 14.0 0.00 0.00 0.00 10 1015.2
20260505002130 52 347 15.0 17.0 0.00 0.00 0.00 10 1015.3
20260505001626 52 8 6.0 8.0 0.00 0.00 0.00 10 1015.1
20260505001124 52 3 9.0 10.0 0.00 0.00 0.00 10 1015.2
20260505000621 53 233 6.0 7.0 0.00 0.00 0.00 10 1015.1
20260505000119 52 322 11.0 14.0 0.00 0.00 0.00 10 1015.2
20260504235615 53 0 12.0 17.0 0.00 0.00 0.00 10 1015.1
20260504235112 53 18 10.0 11.0 0.00 0.00 0.00 10 1015.0
20260504234609 53 78 7.0 7.0 0.00 0.00 0.00 10 1015.2
20260504234106 53 303 8.0 9.0 0.00 0.00 0.00 10 1015.1
20260504233601 53 331 9.0 11.0 0.00 0.00 0.00 10 1015.0
20260504233058 53 355 11.0 13.0 0.00 0.00 0.00 10 1015.0
20260504232555 53 3 13.0 14.0 0.00 0.00 0.00 10 1015.1
20260504232053 53 37 7.0 8.0 0.00 0.00 0.00 10 1015.3
20260504231549 53 306 10.0 13.0 0.00 0.00 0.00 10 1015.3
20260504231045 53 0 8.0 10.0 0.00 0.00 0.00 10 1015.2
20260504230541 53 327 9.0 11.0 0.00 0.00 0.00 10 1015.2
20260504230041 53 344 9.0 10.0 0.00 0.00 0.00 10 1015.1
20260504225537 54 348 14.0 15.0 0.00 0.00 0.00 10 1015.1
20260504225034 55 251 12.0 14.0 0.00 0.00 0.00 10 1014.9
20260504224531 53 17 13.0 16.0 0.00 0.00 0.00 10 1015.1
20260504224028 53 329 16.0 20.0 0.00 0.00 0.00 10 1015.4
20260504223525 53 344 7.0 8.0 0.00 0.00 0.00 10 1015.0
20260504223021 53 262 7.0 9.0 0.00 0.00 0.00 10 1015.2
20260504222518 52 256 9.0 10.0 0.00 0.00 0.00 10 1015.1
20260504222015 52 325 10.0 10.0 0.00 0.00 0.00 10 1015.3
20260504221513 53 330 12.0 14.0 0.00 0.00 0.00 10 1015.0
20260504221009 54 328 12.0 15.0 0.00 0.00 0.00 10 1015.1
20260504220506 54 336 8.0 9.0 0.00 0.00 0.00 10 1015.3
20260504220003 53 287 9.0 10.0 0.00 0.00 0.00 10 1015.3
20260504215459 52 255 10.0 13.0 0.00 0.00 0.00 10 1015.2
20260504214956 52 321 15.0 18.0 0.00 0.00 0.00 10 1015.2
20260504214452 52 1 9.0 10.0 0.00 0.00 0.00 10 1015.1
20260504213949 52 7 11.0 14.0 0.00 0.00 0.00 10 1015.4
20260504213445 52 304 17.0 21.0 0.00 0.00 0.00 10 1015.4
20260504212943 52 332 8.0 11.0 0.00 0.00 0.00 10 1015.2
20260504212438 52 309 13.0 15.0 0.00 0.00 0.00 10 1015.5
20260504211936 53 357 17.0 22.0 0.00 0.00 0.00 10 1015.7
20260504211432 53 283 8.0 9.0 0.00 0.00 0.00 10 1015.5
20260504210930 53 289 11.0 14.0 0.00 0.00 0.00 10 1015.7
20260504210427 53 324 10.0 11.0 0.00 0.00 0.00 10 1015.8
20260504205924 52 274 12.0 15.0 0.00 0.00 0.00 10 1015.9
20260504205421 53 330 11.0 13.0 0.00 0.00 0.00 10 1015.5
20260504204919 53 249 9.0 11.0 0.00 0.00 0.00 10 1015.5
20260504204417 51 166 4.0 5.0 0.00 0.00 0.00 10 1015.8
20260504203917 52 354 9.0 11.0 0.00 0.00 0.00 10 1015.9
20260504203414 52 262 7.0 10.0 0.00 0.00 0.00 10 1015.8
20260504202909 52 322 14.0 16.0 0.00 0.00 0.00 10 1015.7
20260504202406 53 311 14.0 17.0 0.00 0.00 0.00 10 1015.9
20260504201903 52 348 13.0 15.0 0.00 0.00 0.00 10 1015.9
20260504201401 52 317 19.0 24.0 0.00 0.00 0.00 10 1016.0
20260504200857 51 5 10.0 13.0 0.00 0.00 0.00 10 1015.8
20260504200354 51 334 10.0 11.0 0.00 0.00 0.00 10 1015.9
20260504195851 52 323 24.0 25.0 0.00 0.00 0.00 10 1015.9
20260504195346 52 333 16.0 18.0 0.00 0.00 0.00 10 1016.1
20260504194843 53 311 20.0 24.0 0.00 0.00 0.00 10 1016.0
20260504194339 51 340 29.0 35.0 0.00 0.00 0.00 10 1015.7
20260504193835 51 340 14.0 16.0 0.00 0.00 0.00 10 1016.1
20260504193333 51 270 14.0 16.0 0.00 0.00 0.00 10 1016.0
20260504192831 50 1 12.0 14.0 0.00 0.00 0.00 10 1016.1
20260504192329 51 204 9.0 10.0 0.00 0.00 0.00 10 1016.2
20260504191827 51 344 15.0 17.0 0.00 0.00 0.00 10 1015.7
20260504191325 51 302 8.0 9.0 0.00 0.00 0.00 10 1016.1
20260504190820 50 346 12.0 14.0 0.00 0.00 0.00 10 1015.9
20260504190316 50 10 19.0 23.0 0.00 0.00 0.00 10 1016.1
20260504185813 51 17 17.0 25.0 0.00 0.00 0.00 10 1016.0
20260504185310 50 335 15.0 16.0 0.00 0.00 0.00 10 1016.0
20260504184806 50 19 17.0 21.0 0.00 0.00 0.00 10 1016.1
20260504184302 50 304 13.0 15.0 0.00 0.00 0.00 10 1016.1
20260504183757 50 255 16.0 18.0 0.00 0.00 0.00 10 1016.0
20260504183255 50 74 11.0 14.0 0.00 0.00 0.00 10 1016.2
20260504182753 51 21 14.0 15.0 0.00 0.00 0.00 10 1016.2
20260504182250 50 326 17.0 21.0 0.00 0.00 0.00 10 1016.3
20260504181747 50 291 16.0 20.0 0.00 0.00 0.00 10 1016.2
20260504181244 50 334 16.0 18.0 0.00 0.00 0.00 10 1016.1
20260504180744 50 230 10.0 13.0 0.00 0.00 0.00 10 1016.2
20260504180242 50 326 8.0 10.0 0.00 0.00 0.00 10 1016.3
20260504175739 50 276 11.0 13.0 0.00 0.00 0.00 10 1016.2
20260504175235 50 274 11.0 13.0 0.00 0.00 0.00 10 1016.0
20260504174733 49 244 13.0 15.0 0.00 0.00 0.00 10 1016.3
20260504174231 49 295 14.0 17.0 0.00 0.00 0.00 10 1016.2
20260504173727 49 265 13.0 16.0 0.00 0.00 0.00 10 1016.3
20260504173224 49 245 9.0 10.0 0.00 0.00 0.00 10 1016.6
20260504172721 49 272 11.0 14.0 0.00 0.00 0.00 10 1016.3
20260504172217 49 346 9.0 11.0 0.00 0.00 0.00 10 1016.4
20260504171714 49 339 11.0 13.0 0.00 0.00 0.00 10 1016.4
20260504171211 48 295 15.0 18.0 0.00 0.00 0.00 10 1016.7
20260504170708 48 250 7.0 11.0 0.00 0.00 0.00 10 1016.6
20260504170206 48 275 11.0 15.0 0.00 0.00 0.00 10 1016.6
20260504160124 44 4 5.0 7.0 0.00 0.00 0.00 10 1016.9
20260504151051 43 331 5.0 6.0 0.00 0.00 0.00 10 1016.8
20260504150548 43 324 6.0 6.0 0.00 0.00 0.00 10 1016.9
20260504141014 39 180 0.0 0.0 0.00 0.00 0.00 10 1016.6
20260504140511 39 174 0.0 0.0 0.00 0.00 0.00 10 1016.3
20260504130435 37 177 0.0 0.0 0.00 0.00 0.00 10 1016.2
20260504110322 40 167 0.0 0.0 0.00 0.00 0.00 10 1016.1
20260504100240 43 225 2.0 2.0 0.00 0.00 0.00 10 1015.8
20260504081633 44 218 3.0 5.0 0.00 0.00 0.00 10 1015.5
20260504081129 44 197 3.0 3.0 0.00 0.00 0.00 10 1015.5
20260504080626 44 203 3.0 3.0 0.00 0.00 0.00 10 1015.8
20260504080122 44 227 3.0 5.0 0.00 0.00 0.00 10 1015.5